Wind_Speed
41 40 39 39 39 39 37 34 32 31 30 29 27 26 26 26 26 25 23 21 20 20 19 18 18 17 17 17 17 16 16 15 14 14 13 13 13 12 12 12 12 12 12 11 11 11 11 11 11
42 42 42 41 41 40 38 34 33 33 31 31 30 29 29 28 27 26 24 23 22 22 21 20 19 19 19 19 18 18 17 17 16 16 15 15 15 14 14 14 14 14 14 14 13 13 13 13 13
43 43 43 43 43 41 37 35 34 33 33 33 32 31 31 30 28 26 26 25 24 23 23 22 21 21 21 21 20 20 19 19 19 18 18 17 17 17 16 16 16 16 16 16 15 15 14 15 15
44 44 44 44 43 40 38 37 36 34 34 34 33 33 32 30 29 28 27 26 25 25 24 23 23 23 23 22 22 22 22 21 21 21 20 20 20 19 19 19 19 19 18 18 18 18 17 17 17
44 44 45 45 43 41 40 38 35 35 36 34 33 33 33 31 30 29 29 28 27 26 26 25 24 24 24 24 23 24 24 24 24 23 23 22 22 22 21 21 21 21 21 21 21 20 20 20 20
42 43 44 44 42 41 41 38 37 38 36 35 34 33 32 31 31 30 29 29 28 27 27 26 25 25 25 25 25 25 25 25 25 25 25 25 25 24 24 24 23 23 23 23 23 23 22 22 22
40 41 41 42 41 41 41 39 39 38 37 36 35 33 32 31 31 30 30 30 29 28 28 27 27 26 26 26 25 26 26 26 27 27 27 26 26 26 26 26 26 25 25 25 25 25 25 25 25
38 40 40 40 40 40 40 39 39 39 38 36 35 34 33 31 31 32 31 31 30 30 29 28 28 28 27 27 27 27 27 27 27 27 27 27 27 27 27 27 27 27 27 27 27 27 27 27 27
38 38 39 38 38 39 40 40 40 39 38 36 35 34 32 32 32 32 32 32 31 31 30 30 30 30 29 29 28 28 28 28 28 28 28 28 28 28 28 28 29 29 29 29 29 29 29 29 29
37 37 37 38 38 38 39 39 39 39 38 36 35 34 33 33 33 33 33 33 32 32 31 31 31 31 31 31 31 31 31 31 30 30 30 30 30 30 30 30 30 31 31 32 32 32 32 32 32
35 35 35 37 38 38 37 38 38 39 38 37 35 34 33 34 33 33 34 33 33 32 32 32 32 32 33 33 33 33 33 33 33 32 32 32 32 32 32 32 32 32 32 33 33 34 34 35 35
33 35 36 35 36 37 36 36 37 38 38 37 35 34 34 34 34 34 34 34 34 34 33 33 33 33 33 33 33 34 34 34 34 34 34 34 33 33 34 34 34 34 34 34 34 35 36 36 36
31 32 33 34 35 36 36 35 35 36 36 36 35 35 34 34 34 34 34 34 34 34 34 34 33 33 33 33 34 34 34 34 34 34 35 35 35 35 35 35 35 35 35 35 36 36 37 37 38
28 30 31 32 33 34 34 33 33 34 34 34 34 34 34 33 33 33 33 33 34 34 33 33 33 33 33 33 34 34 33 33 33 34 34 35 36 35 36 36 36 36 36 36 37 37 38 38 39
26 29 30 31 32 33 33 32 32 32 32 33 34 34 34 33 33 32 32 32 32 32 32 32 33 33 33 33 33 34 34 34 34 34 35 35 36 36 37 37 38 38 38 38 38 38 38 38 39
24 27 29 29 30 31 32 32 31 32 32 32 33 33 33 33 33 33 33 32 32 32 32 32 32 32 33 34 34 34 34 34 34 35 35 35 36 36 37 38 39 39 39 39 39 39 39 39 39
22 24 26 28 28 29 30 30 31 31 32 31 32 32 33 32 33 33 33 33 32 32 32 33 33 33 34 35 35 35 35 35 35 36 36 37 38 38 38 38 39 40 40 40 40 40 40 40 40
21 22 24 26 27 28 28 29 30 30 30 31 30 31 32 32 33 32 32 33 33 33 33 33 34 35 35 35 35 36 36 36 36 36 37 38 39 39 39 39 40 40 41 41 41 41 40 40 40
18 20 22 23 25 26 27 27 27 28 29 29 30 31 32 32 33 33 33 33 33 34 34 35 35 35 35 35 35 36 36 37 37 36 37 37 38 38 38 38 38 39 39 40 40 40 40 41 41
16 17 19 20 22 23 24 25 26 27 28 29 29 30 32 32 34 34 34 34 34 34 34 35 35 36 36 35 35 36 36 37 37 37 36 36 37 37 37 37 37 38 38 39 40 40 40 41 41
14 16 17 18 20 21 22 23 24 25 27 28 29 30 31 32 33 34 35 34 35 35 35 35 35 35 35 35 36 36 36 36 36 36 37 38 38 37 37 37 37 38 39 39 39 40 41 41 42
12 14 16 17 18 19 21 22 22 23 24 25 27 28 30 31 33 34 35 35 35 35 35 35 35 35 35 35 36 36 36 36 36 37 37 37 37 37 37 37 38 39 39 40 40 40 41 42 42
11 13 14 15 16 18 19 21 20 21 22 23 25 27 29 30 32 33 34 35 35 35 35 35 35 35 36 36 36 36 36 36 36 37 37 37 37 38 38 38 39 39 39 39 39 40 41 42 42
10 12 13 14 15 16 17 19 19 20 20 22 24 25 27 28 30 32 34 35 35 35 35 34 34 35 35 36 36 37 37 37 37 37 36 36 37 37 38 38 38 38 38 39 39 40 41 42 42
10 11 12 13 14 14 15 16 17 18 19 21 22 23 25 27 29 31 33 34 34 34 34 34 34 35 35 35 36 36 36 37 37 37 37 37 37 37 37 38 38 38 38 39 39 40 40 41 41
10 10 11 12 13 13 14 15 16 17 18 20 21 22 23 25 26 28 30 32 33 34 35 35 36 36 36 36 36 36 37 37 37 37 37 38 38 37 37 37 38 38 39 39 40 40 40 41 41
10 11 11 12 13 13 14 14 15 16 18 19 21 22 23 24 25 26 28 30 32 33 34 35 36 36 37 37 37 38 37 37 37 37 37 37 38 37 37 37 37 37 38 38 38 38 39 39 40
11 11 12 12 13 14 14 15 16 16 18 19 21 22 23 24 25 26 28 30 31 33 34 35 35 36 36 37 37 37 37 36 36 36 36 36 37 37 37 37 37 37 37 37 37 38 38 39 40
11 12 12 13 14 15 16 16 17 17 19 19 20 21 23 24 25 27 28 30 31 31 32 33 33 34 34 35 35 35 35 35 34 35 35 35 36 36 36 36 36 36 37 37 37 38 38 39 40
12 13 14 14 15 16 17 16 17 18 19 20 21 22 23 24 25 26 27 28 29 30 31 31 32 33 33 33 33 34 34 34 34 35 35 35 35 35 35 35 35 36 36 36 37 38 38 39 40
Wind_Direction
238 237 236 236 236 237 238 238 239 240 241 242 243 242 242 244 245 246 246 244 245 245 245 247 248 250 251 251 252 253 255 257 258 259 259 260 260 261 261 262 263 263 265 266 264 264 263 265 268
236 236 235 235 236 237 238 238 239 240 241 241 242 241 242 245 246 247 247 245 245 246 246 248 249 250 252 252 254 254 256 257 258 260 261 262 262 263 264 264 265 266 267 269 269 268 267 266 267
234 234 234 235 235 237 237 238 239 240 240 240 240 242 243 245 247 248 247 244 244 246 248 248 250 251 253 255 255 256 258 259 260 260 261 263 263 263 264 265 266 267 267 268 269 270 269 268 268
233 233 233 234 235 236 236 236 238 239 240 240 240 242 244 246 247 247 246 245 244 246 248 250 251 252 254 255 256 258 259 260 261 261 262 264 265 265 265 265 266 267 267 267 268 269 269 269 270
231 231 232 233 234 234 235 236 237 238 240 240 241 243 244 245 245 245 245 244 244 246 248 250 252 252 254 256 258 258 259 260 260 261 263 264 266 266 266 266 266 267 268 268 268 268 268 268 269
231 230 231 232 233 234 235 235 236 238 240 241 241 242 243 242 243 243 243 243 244 246 248 250 252 253 254 256 258 259 259 260 261 262 263 264 265 266 267 267 267 267 267 268 268 268 268 269 270
229 230 231 231 232 233 234 234 236 239 240 241 241 241 241 240 242 243 244 244 245 247 249 250 252 254 255 256 258 259 260 261 262 263 264 264 265 266 267 267 267 267 267 267 268 268 268 268 269
228 229 230 229 230 232 232 233 235 238 240 240 240 240 240 241 242 243 244 246 247 248 250 251 252 254 255 257 258 259 261 262 263 263 264 264 265 266 266 266 266 266 266 266 267 268 268 268 269
227 228 228 228 229 231 231 233 235 237 240 240 241 241 242 243 243 244 245 246 248 249 250 251 253 255 256 258 259 260 261 262 263 264 264 265 266 266 267 267 267 267 267 266 267 267 268 268 269
226 228 228 228 228 230 232 233 235 237 239 240 242 243 243 244 245 244 246 247 248 249 251 253 254 255 257 259 260 261 262 263 263 264 265 266 267 267 268 268 268 268 267 267 267 268 268 268 269
227 228 228 228 229 231 232 234 235 237 239 240 242 243 243 245 246 245 246 247 248 250 252 253 255 257 259 260 262 263 263 264 265 265 266 267 267 267 268 268 268 268 268 268 269 269 269 269 269
227 228 229 229 229 231 232 234 236 237 239 241 243 244 244 245 246 246 246 247 248 250 252 254 256 259 260 261 262 263 264 265 266 266 266 267 268 269 269 269 268 268 269 269 269 269 270 270 270
223 225 229 230 230 232 234 235 237 238 239 241 242 243 244 245 245 245 246 247 249 251 253 255 257 259 261 261 262 263 265 265 266 266 267 268 269 269 270 271 270 270 270 269 269 269 269 270 270
223 225 228 230 230 232 234 235 237 237 238 240 240 242 243 244 245 245 246 248 249 251 252 255 257 259 261 262 264 265 265 266 267 268 269 269 269 269 269 270 271 271 271 271 270 270 270 270 271
224 226 229 231 232 234 235 237 238 239 239 241 241 241 243 244 245 246 247 247 249 250 253 256 258 259 260 262 263 265 266 266 267 268 269 270 269 269 270 270 271 271 272 271 270 270 270 272 272
227 228 230 232 235 235 236 236 238 240 241 242 242 242 242 243 244 245 246 247 249 251 253 256 259 260 262 264 265 265 266 267 268 269 270 270 270 272 271 272 272 272 272 272 271 270 271 272 272
228 230 232 233 236 237 236 237 238 240 242 243 243 242 242 242 242 244 245 247 250 251 254 258 260 262 264 265 266 267 269 270 270 271 271 271 271 272 273 274 274 273 273 272 272 272 271 271 272
231 233 235 237 237 238 238 239 240 241 243 243 243 243 242 241 241 243 245 248 250 253 255 258 260 261 263 266 268 270 271 271 271 272 274 273 273 273 273 274 275 275 274 273 272 271 271 271 271
235 237 238 240 239 239 241 241 241 243 243 244 244 243 242 243 243 245 247 249 251 254 258 261 262 263 265 267 267 269 271 272 274 275 276 275 275 274 275 276 276 276 275 274 274 273 272 271 271
235 238 241 242 241 241 243 241 242 244 245 244 244 244 243 245 246 247 249 250 252 256 260 263 263 264 265 267 268 269 271 273 273 274 275 276 276 276 278 277 277 276 276 275 275 273 273 272 272
235 239 242 245 244 245 245 241 241 244 246 246 246 246 246 247 249 249 251 253 255 257 260 264 266 265 266 268 269 270 271 272 273 274 274 276 277 277 278 278 278 278 278 277 276 275 273 272 273
236 239 245 249 251 251 249 245 243 245 248 248 249 249 248 250 252 252 254 255 257 259 260 263 266 266 267 267 269 270 271 272 273 274 275 276 277 278 278 279 279 279 278 278 277 276 274 274 274
245 246 250 253 256 255 254 253 248 248 250 251 252 252 253 254 255 255 256 257 259 261 261 263 266 267 268 267 268 270 271 272 274 275 276 277 278 279 279 279 280 280 280 279 278 277 276 275 275
252 252 253 256 259 260 259 258 255 254 253 254 255 257 256 257 258 258 257 258 259 261 262 264 265 266 267 268 269 270 271 273 274 276 276 277 279 280 281 280 280 280 280 279 278 278 277 276 276
255 256 257 259 259 262 261 261 261 260 258 259 259 260 260 260 261 260 258 259 261 261 262 264 265 266 268 269 271 272 272 274 275 276 277 277 279 280 281 280 279 280 280 280 279 279 278 278 278
263 261 265 265 266 265 265 264 263 263 262 262 263 264 264 265 265 264 261 260 261 263 264 266 267 268 268 270 272 272 273 275 277 277 278 277 279 279 280 281 280 280 280 280 280 280 279 278 279
265 265 265 266 269 269 269 269 268 267 266 266 267 269 269 268 267 265 264 264 264 265 267 267 267 268 269 271 272 274 274 276 277 278 278 278 279 279 280 281 281 281 281 282 281 281 281 280 280
270 268 266 270 275 276 272 272 272 272 271 269 269 270 271 271 270 269 267 267 267 268 268 268 268 269 270 271 272 273 273 275 276 277 278 278 279 280 280 280 281 281 282 282 282 282 281 281 281
273 270 270 272 274 278 279 278 277 275 273 273 274 274 275 276 274 272 271 270 270 270 270 269 270 270 271 272 273 273 273 274 275 277 278 279 281 281 281 281 282 282 283 283 283 283 282 282 282
275 274 275 276 277 279 281 281 279 278 276 276 276 277 278 279 277 276 274 271 270 270 271 271 271 271 272 272 273 274 273 274 275 277 279 279 280 281 282 282 283 283 283 284 285 285 285 284 285
Height
5802 5805 5809 5812 5815 5817 5822 5827 5831 5834 5837 5839 5841 5844 5846 5847 5849 5853 5855 5856 5858 5859 5861 5862 5863 5865 5866 5867 5868 5869 5870 5871 5871 5872 5872 5873 5874 5874 5875 5875 5875 5876 5876 5876 5876 5876 5877 5877 5877
5793 5797 5801 5804 5807 5811 5817 5822 5825 5828 5832 5834 5836 5839 5840 5842 5845 5847 5850 5852 5854 5856 5857 5859 5860 5862 5863 5864 5865 5866 5867 5868 5869 5869 5870 5871 5871 5872 5872 5873 5873 5873 5874 5874 5874 5874 5875 5875 5875
5784 5787 5792 5795 5800 5806 5813 5817 5819 5822 5825 5828 5831 5833 5836 5838 5841 5843 5845 5848 5850 5852 5853 5855 5857 5858 5860 5861 5862 5863 5864 5865 5866 5866 5867 5868 5868 5869 5869 5870 5870 5871 5871 5871 5872 5872 5872 5872 5872
5775 5779 5783 5788 5794 5801 5806 5810 5813 5816 5818 5821 5825 5828 5831 5834 5836 5838 5840 5843 5846 5848 5849 5851 5853 5854 5856 5857 5858 5859 5860 5861 5862 5863 5864 5864 5865 5865 5866 5866 5867 5867 5868 5868 5868 5869 5869 5869 5869
5765 5770 5775 5781 5788 5794 5798 5802 5806 5809 5812 5816 5819 5822 5825 5828 5831 5833 5835 5838 5841 5843 5845 5847 5849 5850 5852 5853 5854 5855 5856 5857 5858 5859 5859 5860 5861 5861 5862 5862 5863 5863 5864 5864 5865 5865 5865 5866 5866
5757 5762 5768 5774 5782 5787 5791 5796 5799 5802 5805 5809 5813 5817 5819 5823 5825 5828 5830 5833 5836 5839 5841 5843 5844 5846 5847 5848 5849 5851 5852 5852 5853 5854 5855 5855 5856 5857 5857 5858 5858 5859 5859 5860 5860 5860 5861 5861 5862
5751 5756 5761 5769 5774 5779 5784 5789 5792 5795 5799 5803 5807 5811 5813 5817 5820 5823 5825 5828 5831 5834 5836 5838 5839 5841 5842 5843 5845 5846 5846 5847 5848 5849 5850 5850 5851 5852 5852 5853 5853 5854 5854 5855 5855 5856 5856 5857 5857
5743 5750 5755 5761 5766 5771 5777 5781 5785 5789 5793 5797 5801 5805 5808 5812 5815 5817 5820 5823 5826 5828 5831 5833 5834 5836 5837 5838 5839 5840 5841 5842 5843 5843 5844 5845 5845 5846 5847 5847 5848 5848 5849 5849 5850 5850 5851 5851 5852
5737 5744 5749 5755 5759 5764 5769 5774 5779 5782 5786 5791 5794 5799 5803 5806 5808 5811 5814 5818 5820 5823 5825 5827 5829 5830 5832 5833 5834 5835 5836 5836 5837 5838 5838 5839 5839 5840 5841 5841 5842 5842 5843 5843 5844 5844 5845 5845 5846
5731 5737 5743 5748 5752 5757 5762 5767 5772 5776 5780 5785 5789 5793 5796 5799 5802 5805 5808 5812 5814 5817 5819 5821 5823 5824 5826 5827 5828 5829 5830 5830 5831 5832 5832 5833 5833 5834 5834 5835 5835 5836 5836 5837 5837 5837 5838 5839 5839
5726 5732 5737 5741 5745 5750 5756 5761 5765 5769 5774 5779 5783 5787 5790 5793 5796 5799 5802 5805 5808 5811 5813 5815 5817 5818 5820 5821 5822 5822 5823 5824 5825 5825 5826 5826 5827 5827 5828 5828 5828 5829 5829 5830 5830 5830 5831 5831 5832
5721 5726 5731 5735 5740 5745 5750 5755 5759 5763 5769 5773 5777 5780 5784 5787 5790 5793 5796 5799 5802 5804 5806 5809 5810 5812 5813 5814 5815 5816 5817 5817 5818 5818 5819 5819 5820 5820 5821 5821 5821 5821 5822 5822 5822 5823 5823 5823 5824
5716 5722 5726 5731 5736 5740 5744 5749 5753 5758 5762 5766 5770 5774 5777 5780 5784 5787 5790 5793 5796 5798 5800 5802 5803 5805 5806 5807 5808 5809 5809 5810 5810 5811 5811 5812 5812 5813 5813 5813 5813 5813 5814 5814 5814 5814 5815 5815 5815
5713 5718 5722 5726 5731 5735 5740 5744 5748 5753 5756 5760 5764 5767 5771 5774 5777 5781 5784 5787 5789 5791 5793 5795 5796 5798 5799 5800 5800 5801 5802 5802 5803 5803 5803 5804 5804 5804 5805 5805 5805 5805 5805 5805 5805 5805 5806 5806 5806
5710 5714 5718 5722 5726 5731 5735 5740 5744 5747 5751 5754 5758 5761 5764 5768 5771 5775 5777 5780 5783 5785 5787 5788 5790 5791 5791 5792 5793 5793 5794 5795 5795 5795 5795 5795 5795 5795 5796 5796 5796 5796 5796 5796 5796 5796 5797 5797 5797
5707 5711 5715 5719 5722 5726 5732 5735 5739 5742 5745 5748 5752 5755 5758 5762 5765 5768 5771 5774 5776 5778 5781 5782 5783 5784 5784 5785 5785 5786 5786 5787 5787 5787 5787 5787 5787 5787 5787 5788 5787 5787 5787 5787 5787 5787 5787 5788 5788
5704 5708 5712 5716 5719 5722 5726 5730 5734 5737 5740 5743 5746 5749 5753 5756 5759 5762 5765 5767 5770 5772 5774 5775 5776 5777 5777 5778 5778 5778 5778 5779 5779 5779 5779 5779 5779 5778 5779 5778 5778 5777 5777 5777 5777 5778 5778 5778 5778
5703 5706 5709 5712 5715 5718 5722 5726 5729 5732 5735 5738 5741 5744 5747 5750 5753 5756 5759 5761 5763 5765 5767 5768 5769 5770 5770 5771 5771 5771 5771 5771 5771 5770 5770 5770 5770 5769 5769 5768 5768 5767 5767 5767 5767 5767 5768 5768 5768
5701 5703 5706 5709 5712 5715 5718 5722 5725 5727 5730 5733 5736 5739 5742 5745 5747 5750 5752 5755 5757 5759 5760 5761 5762 5762 5763 5763 5763 5763 5763 5763 5762 5762 5762 5761 5761 5760 5759 5759 5759 5758 5758 5757 5757 5757 5757 5758 5757
5699 5701 5704 5706 5708 5711 5714 5717 5720 5723 5725 5728 5731 5733 5736 5739 5741 5744 5746 5748 5750 5752 5753 5754 5754 5755 5755 5755 5756 5756 5756 5755 5754 5754 5753 5753 5752 5751 5750 5750 5749 5749 5748 5747 5747 5747 5747 5747 5747
5698 5700 5702 5704 5706 5708 5711 5714 5716 5718 5721 5723 5726 5728 5730 5733 5735 5737 5739 5741 5743 5744 5745 5746 5747 5747 5747 5747 5748 5748 5748 5747 5746 5746 5745 5744 5743 5742 5741 5741 5740 5739 5738 5738 5737 5736 5736 5736 5736
5696 5698 5700 5702 5704 5705 5708 5710 5713 5714 5716 5718 5721 5723 5725 5727 5729 5730 5732 5734 5735 5736 5738 5739 5739 5739 5740 5739 5740 5740 5739 5739 5738 5738 5737 5735 5734 5733 5732 5732 5731 5730 5729 5728 5727 5726 5725 5725 5725
5695 5696 5698 5700 5701 5703 5704 5706 5710 5710 5712 5714 5716 5717 5719 5721 5722 5723 5725 5726 5728 5729 5730 5731 5732 5732 5732 5732 5732 5731 5731 5731 5730 5729 5728 5727 5726 5724 5723 5722 5721 5720 5719 5717 5716 5716 5715 5714 5714
5694 5695 5696 5697 5698 5701 5701 5702 5705 5706 5708 5709 5710 5712 5713 5714 5715 5717 5718 5719 5720 5722 5722 5723 5724 5724 5724 5724 5724 5723 5723 5722 5722 5721 5720 5718 5717 5716 5714 5713 5712 5710 5709 5708 5706 5705 5704 5704 5703
5693 5694 5695 5695 5696 5698 5698 5699 5702 5702 5704 5704 5705 5707 5707 5708 5709 5710 5711 5712 5713 5714 5715 5715 5716 5716 5716 5716 5715 5715 5714 5714 5713 5712 5711 5710 5709 5707 5705 5704 5702 5701 5699 5698 5696 5695 5694 5693 5692
5691 5692 5693 5694 5694 5695 5695 5696 5698 5698 5699 5699 5700 5701 5702 5702 5703 5703 5704 5705 5706 5706 5707 5707 5708 5708 5708 5707 5707 5706 5706 5705 5704 5703 5702 5701 5700 5698 5696 5695 5693 5691 5690 5688 5686 5685 5684 5683 5681
5689 5690 5690 5691 5691 5692 5692 5693 5694 5694 5695 5695 5696 5696 5696 5697 5697 5697 5697 5698 5698 5698 5699 5699 5699 5699 5699 5699 5698 5698 5697 5696 5695 5694 5693 5692 5691 5689 5688 5685 5684 5682 5680 5678 5676 5675 5674 5672 5671
5688 5687 5688 5688 5687 5688 5689 5689 5690 5690 5690 5690 5690 5690 5690 5691 5691 5691 5691 5690 5690 5690 5690 5690 5690 5690 5690 5690 5689 5689 5688 5687 5687 5685 5684 5683 5682 5680 5678 5676 5675 5673 5671 5669 5667 5665 5664 5662 5661
5685 5685 5684 5685 5685 5684 5684 5688 5686 5685 5685 5685 5685 5684 5684 5684 5684 5683 5683 5683 5682 5682 5682 5682 5681 5681 5681 5681 5680 5680 5679 5679 5678 5676 5675 5674 5672 5671 5669 5667 5665 5663 5662 5660 5658 5656 5654 5652 5650
5682 5682 5682 5682 5682 5680 5680 5685 5681 5680 5679 5679 5679 5679 5678 5677 5677 5676 5675 5675 5674 5674 5674 5673 5673 5673 5673 5672 5672 5671 5671 5670 5669 5668 5666 5665 5663 5662 5660 5658 5656 5654 5652 5650 5648 5646 5644 5642 5640